Location: STAR School
(35.3054°N, 111.2976°W)
Time: 09:52:33
(UTC-07:00)

N. Korean satellite - Pass Details

Date: 23 October 2019
Orbit: 456 x 506 km, 97.2° (Epoch: 20 November)

Event Time Altitude Azimuth Distance (km) Brightness Sun altitude
Rises 05:58:28 0° 17° (NNE) 2,569 10.4 -8.8°
Reaches altitude 10° 06:00:35 10° 23° (NNE) 1,691 9.5 -8.4°
Maximum altitude 06:04:07 49° 99° (E) 647 7.8 -7.7°
Drops below altitude 10° 06:07:41 10° 176° (S) 1,699 9.5 -6.9°
Sets 06:09:48 0° 181° (S) 2,582 10.4 -6.5°
